K6OUA-11 Weather Reports


time (UTC)temp
C
wind
direction
speed
KPH
gust
KPH
rain 1hr
cm
rain 24hr
cm
rain mn
cm
humidity
%
barometer
mb
20170921063624 15 0 0.0 3.2 0.00 0.00 0.00 89 1005.2
20170921063424 15 42 1.6 3.2 0.00 0.00 0.00 89 1005.3
20170921063323 15 42 1.6 3.2 0.00 0.00 0.00 89 1005.3
20170921063204 15 15 1.6 3.2 0.00 0.00 0.00 89 1005.1
20170921063022 15 15 1.6 3.2 0.00 0.00 0.00 89 1005.1
20170921062828 15 9 1.6 3.2 0.00 0.00 0.00 89 1005.3
20170921062721 15 9 1.6 3.2 0.00 0.00 0.00 89 1005.3
20170921062618 15 0 0.0 3.2 0.00 0.00 0.00 89 1005.3
20170921062420 15 0 0.0 3.2 0.00 0.00 0.00 89 1005.3
20170921062232 15 31 1.6 3.2 0.00 0.00 0.00 89 1005.3
20170921062118 15 31 1.6 3.2 0.00 0.00 0.00 89 1005.3
20170921061915 15 32 1.6 1.6 0.00 0.00 0.00 89 1005.3
20170921061817 15 32 1.6 1.6 0.00 0.00 0.00 89 1005.3
20170921061628 15 4 1.6 1.6 0.00 0.00 0.00 89 1005.3
20170921061515 15 4 1.6 1.6 0.00 0.00 0.00 89 1005.3
20170921061104 15 31 1.6 3.2 0.00 0.00 0.00 89 1005.3
20170921060914 15 31 1.6 3.2 0.00 0.00 0.00 89 1005.3
20170921060822 15 270 0.0 1.6 0.00 0.00 0.00 89 1005.5
20170921060613 15 270 0.0 1.6 0.00 0.00 0.00 89 1005.5
20170921060312 15 20 1.6 1.6 0.00 0.00 0.00 88 1005.5
20170921060130 15 45 1.6 3.2 0.00 0.00 0.00 89 1005.4
20170921060011 15 45 1.6 3.2 0.00 0.00 0.00 89 1005.4
20170921055839 15 65 1.6 3.2 0.00 0.00 0.00 89 1005.5
20170921055708 15 65 1.6 3.2 0.00 0.00 0.00 89 1005.5
20170921055515 15 337 0.0 1.6 0.00 0.00 0.00 88 1005.4
20170921055409 15 337 0.0 1.6 0.00 0.00 0.00 88 1005.4
20170921055108 15 353 0.0 1.6 0.00 0.00 0.00 88 1005.5
20170921054917 15 45 0.0 0.0 0.00 0.00 0.00 88 1005.4
20170921054805 15 45 0.0 0.0 0.00 0.00 0.00 88 1005.4
20170921054615 15 45 0.0 1.6 0.00 0.00 0.00 88 1005.4
20170921054505 15 45 0.0 1.6 0.00 0.00 0.00 88 1005.4
20170921054206 15 45 0.0 3.2 0.00 0.00 0.00 89 1005.5
20170921053903 15 137 1.6 3.2 0.00 0.00 0.00 89 1005.5
20170921053702 15 27 1.6 3.2 0.00 0.00 0.00 88 1005.6
20170921053602 15 27 1.6 3.2 0.00 0.00 0.00 88 1005.6
20170921053438 15 49 1.6 3.2 0.00 0.00 0.00 89 1005.6
20170921053301 15 49 1.6 3.2 0.00 0.00 0.00 89 1005.6
20170921053132 15 45 1.6 3.2 0.00 0.00 0.00 89 1005.5
20170921053001 15 45 1.6 3.2 0.00 0.00 0.00 89 1005.5
20170921052824 15 38 1.6 1.6 0.00 0.00 0.00 88 1005.5
20170921052701 15 38 1.6 1.6 0.00 0.00 0.00 88 1005.5
20170921052511 15 352 1.6 1.6 0.00 0.00 0.00 88 1005.5
20170921052357 15 352 1.6 1.6 0.00 0.00 0.00 88 1005.5
20170921052144 15 61 1.6 1.6 0.00 0.00 0.00 88 1005.5
20170921052056 15 61 1.6 1.6 0.00 0.00 0.00 88 1005.5
20170921051900 15 0 0.0 1.6 0.00 0.00 0.00 88 1005.6
20170921051756 15 0 0.0 1.6 0.00 0.00 0.00 88 1005.6
20170921051343 15 90 0.0 0.0 0.00 0.00 0.00 87 1005.6
20170921051153 15 90 0.0 0.0 0.00 0.00 0.00 87 1005.6
20170921051045 15 90 0.0 0.0 0.00 0.00 0.00 87 1005.6
20170921050852 15 90 0.0 0.0 0.00 0.00 0.00 87 1005.6
20170921050710 15 90 0.0 0.0 0.00 0.00 0.00 87 1005.5
20170921050551 15 90 0.0 0.0 0.00 0.00 0.00 87 1005.5
20170921050417 15 90 0.0 0.0 0.00 0.00 0.00 87 1005.7
20170921050249 15 90 0.0 0.0 0.00 0.00 0.00 87 1005.7
20170921050111 15 90 0.0 3.2 0.00 0.00 0.00 87 1005.6
20170921045949 15 90 0.0 3.2 0.00 0.00 0.00 87 1005.6
20170921045648 15 45 0.0 0.0 0.00 0.00 0.00 86 1005.6
20170921045454 15 45 0.0 0.0 0.00 0.00 0.00 86 1005.7
20170921045346 15 45 0.0 0.0 0.00 0.00 0.00 86 1005.7
20170921045157 15 45 0.0 0.0 0.00 0.00 0.00 86 1005.7
20170921045045 15 45 0.0 0.0 0.00 0.00 0.00 86 1005.7
20170921044744 15 270 0.0 0.0 0.00 0.00 0.00 86 1005.8
20170921044443 15 225 0.0 0.0 0.00 0.00 0.00 86 1005.7
20170921044307 15 180 0.0 0.0 0.00 0.00 0.00 86 1005.7
20170921044141 15 180 0.0 0.0 0.00 0.00 0.00 86 1005.7
20170921043928 15 180 0.0 0.0 0.00 0.00 0.00 85 1005.8
20170921043841 15 180 0.0 0.0 0.00 0.00 0.00 85 1005.8
20170921043719 15 180 0.0 0.0 0.00 0.00 0.00 85 1005.8
20170921043539 15 180 0.0 0.0 0.00 0.00 0.00 85 1005.8
20170921042937 15 180 0.0 0.0 0.00 0.00 0.00 85 1005.9
20170921042812 15 225 0.0 0.0 0.00 0.00 0.00 84 1005.9
20170921042636 15 225 0.0 0.0 0.00 0.00 0.00 84 1005.9
20170921042527 15 225 0.0 0.0 0.00 0.00 0.00 84 1005.9
20170921042335 15 225 0.0 0.0 0.00 0.00 0.00 84 1005.9
20170921042135 15 225 0.0 0.0 0.00 0.00 0.00 84 1005.9
20170921042035 15 225 0.0 0.0 0.00 0.00 0.00 84 1005.9
20170921041925 15 225 0.0 0.0 0.00 0.00 0.00 84 1005.9
20170921041733 15 225 0.0 0.0 0.00 0.00 0.00 84 1005.9
20170921041607 15 225 0.0 0.0 0.00 0.00 0.00 84 1005.8
20170921041431 15 225 0.0 0.0 0.00 0.00 0.00 84 1005.8
20170921041259 15 225 0.0 0.0 0.00 0.00 0.00 83 1005.7
20170921041130 15 225 0.0 0.0 0.00 0.00 0.00 83 1005.7
20170921040912 15 225 0.0 0.0 0.00 0.00 0.00 83 1005.7
20170921040828 15 225 0.0 0.0 0.00 0.00 0.00 83 1005.7
20170921040636 15 225 0.0 0.0 0.00 0.00 0.00 83 1005.7
20170921040529 15 225 0.0 0.0 0.00 0.00 0.00 83 1005.7
20170921040404 15 225 0.0 1.6 0.00 0.00 0.00 83 1005.7
20170921040227 15 225 0.0 1.6 0.00 0.00 0.00 83 1005.7
20170921040048 16 225 1.6 1.6 0.00 0.00 0.00 83 1005.8
20170921035927 16 225 1.6 1.6 0.00 0.00 0.00 83 1005.8
20170921035728 16 225 0.0 0.0 0.00 0.00 0.00 83 1005.6
20170921035625 16 225 0.0 0.0 0.00 0.00 0.00 83 1005.6
20170921035523 16 225 0.0 0.0 0.00 0.00 0.00 82 1005.7
20170921035324 16 225 0.0 0.0 0.00 0.00 0.00 82 1005.7
20170921034822 16 225 0.0 0.0 0.00 0.00 0.00 82 1005.4
20170921034722 16 225 0.0 0.0 0.00 0.00 0.00 82 1005.4
20170921034540 16 225 0.0 0.0 0.00 0.00 0.00 82 1005.5
20170921034420 16 225 0.0 0.0 0.00 0.00 0.00 82 1005.5
20170921034216 16 225 0.0 0.0 0.00 0.00 0.00 82 1005.6
20170921034120 16 225 0.0 0.0 0.00 0.00 0.00 82 1005.6
20170921033616 16 225 0.0 0.0 0.00 0.00 0.00 82 1005.5
20170921033516 16 225 0.0 0.0 0.00 0.00 0.00 82 1005.5
20170921033402 16 225 0.0 0.0 0.00 0.00 0.00 82 1005.6
20170921033217 16 225 0.0 0.0 0.00 0.00 0.00 82 1005.6
20170921032915 16 225 0.0 3.2 0.00 0.00 0.00 81 1005.6
20170921032615 16 225 0.0 0.0 0.00 0.00 0.00 81 1005.6
20170921032443 17 225 0.0 1.6 0.00 0.00 0.00 81 1005.6
20170921032313 17 225 0.0 1.6 0.00 0.00 0.00 81 1005.6
20170921031823 17 225 0.0 1.6 0.00 0.00 0.00 81 1005.3
20170921031710 17 225 0.0 1.6 0.00 0.00 0.00 81 1005.3
20170921031410 17 231 0.0 0.0 0.00 0.00 0.00 80 1005.3
20170921030923 17 270 0.0 0.0 0.00 0.00 0.00 80 1005.5
20170921030802 17 270 0.0 0.0 0.00 0.00 0.00 80 1005.5
20170921030502 17 225 0.0 1.6 0.00 0.00 0.00 80 1005.3
20170921030201 17 225 1.6 1.6 0.00 0.00 0.00 79 1005.4
20170921030023 17 202 0.0 1.6 0.00 0.00 0.00 79 1005.2
20170921025859 17 202 0.0 1.6 0.00 0.00 0.00 79 1005.2
20170921025717 17 238 0.0 1.6 0.00 0.00 0.00 79 1005.3
20170921025558 17 238 0.0 1.6 0.00 0.00 0.00 79 1005.3
20170921025257 17 225 0.0 1.6 0.00 0.00 0.00 79 1005.2
20170921024955 17 225 0.0 1.6 0.00 0.00 0.00 79 1005.1
20170921024655 17 261 1.6 3.2 0.00 0.00 0.00 78 1005.1
20170921024520 17 245 1.6 1.6 0.00 0.00 0.00 78 1004.9
20170921024354 17 245 1.6 1.6 0.00 0.00 0.00 78 1004.9
20170921024051 17 193 0.0 4.8 0.00 0.00 0.00 78 1005.0
20170921023908 17 238 3.2 4.8 0.00 0.00 0.00 77 1005.1
20170921023752 17 238 3.2 4.8 0.00 0.00 0.00 77 1005.1
20170921023450 17 211 0.0 4.8 0.00 0.00 0.00 77 1004.9
20170921023312 18 252 3.2 3.2 0.00 0.00 0.00 76 1004.9
20170921023149 18 252 3.2 3.2 0.00 0.00 0.00 76 1004.9
20170921023008 18 238 1.6 4.8 0.00 0.00 0.00 76 1004.9
20170921022848 18 238 1.6 4.8 0.00 0.00 0.00 76 1004.9
20170921022717 18 210 3.2 4.8 0.00 0.00 0.00 75 1004.8
20170921022548 18 210 3.2 4.8 0.00 0.00 0.00 75 1004.8
20170921022440 18 315 1.6 1.6 0.00 0.00 0.00 74 1004.8
20170921022246 18 315 1.6 1.6 0.00 0.00 0.00 74 1004.8
20170921021944 18 236 1.6 1.6 0.00 0.00 0.00 74 1004.8
20170921021517 18 229 0.0 3.2 0.00 0.00 0.00 72 1004.8
20170921021343 18 229 0.0 3.2 0.00 0.00 0.00 72 1004.8
20170921021225 18 229 0.0 3.2 0.00 0.00 0.00 72 1005.0
20170921021040 18 229 0.0 3.2 0.00 0.00 0.00 72 1005.0
20170921020740 18 182 1.6 1.6 0.00 0.00 0.00 71 1004.8
20170921020545 19 225 0.0 1.6 0.00 0.00 0.00 71 1004.9
20170921020438 19 225 0.0 1.6 0.00 0.00 0.00 71 1004.9
20170921020138 19 245 0.0 1.6 0.00 0.00 0.00 70 1004.7
20170921015942 19 234 0.0 6.4 0.00 0.00 0.00 70 1004.8
20170921015838 19 234 0.0 6.4 0.00 0.00 0.00 70 1004.8
20170921015659 19 261 4.8 8.0 0.00 0.00 0.00 69 1004.8
20170921015536 19 261 4.8 8.0 0.00 0.00 0.00 69 1004.8
20170921015350 20 238 0.0 6.4 0.00 0.00 0.00 69 1004.9
20170921015234 20 238 0.0 6.4 0.00 0.00 0.00 69 1004.9
20170921015116 20 236 1.6 6.4 0.00 0.00 0.00 69 1005.0
20170921014934 20 236 1.6 6.4 0.00 0.00 0.00 69 1005.0
20170921014807 20 250 3.2 4.8 0.00 0.00 0.00 68 1005.0
20170921014631 20 250 3.2 4.8 0.00 0.00 0.00 68 1005.0
20170921014525 20 231 1.6 4.8 0.00 0.00 0.00 68 1005.0
20170921014332 20 231 1.6 4.8 0.00 0.00 0.00 68 1005.0
20170921014142 20 204 1.6 4.8 0.00 0.00 0.00 68 1004.9
20170921014030 20 204 1.6 4.8 0.00 0.00 0.00 68 1004.9
20170921013947 20 240 4.8 6.4 0.00 0.00 0.00 67 1005.0
20170921013729 20 240 4.8 6.4 0.00 0.00 0.00 67 1005.0
20170921013557 21 252 6.4 6.4 0.00 0.00 0.00 66 1004.8
20170921013427 21 252 6.4 6.4 0.00 0.00 0.00 66 1004.8
20170921013250 21 236 4.8 6.4 0.00 0.00 0.00 65 1004.8
20170921013126 21 236 4.8 6.4 0.00 0.00 0.00 65 1004.8
20170921012825 21 252 3.2 9.7 0.00 0.00 0.00 65 1004.9
20170921012525 21 267 3.2 8.0 0.00 0.00 0.00 63 1004.8
20170921012224 21 243 1.6 8.0 0.00 0.00 0.00 64 1004.8
20170921011923 22 200 0.0 4.8 0.00 0.00 0.00 63 1004.8
20170921011731 22 220 1.6 6.4 0.00 0.00 0.00 63 1004.8
20170921011620 22 220 1.6 6.4 0.00 0.00 0.00 63 1004.8
20170921011514 22 237 3.2 9.7 0.00 0.00 0.00 62 1004.9
20170921011319 22 237 3.2 9.7 0.00 0.00 0.00 62 1004.9
20170921011020 22 243 3.2 9.7 0.00 0.00 0.00 61 1005.0
20170921010847 22 272 4.8 6.4 0.00 0.00 0.00 61 1005.0
20170921010717 22 272 4.8 6.4 0.00 0.00 0.00 61 1005.0
20170921010116 23 252 4.8 4.8 0.00 0.00 0.00 60 1004.9
20170921005914 23 222 1.6 8.0 0.00 0.00 0.00 59 1005.0
20170921005816 23 222 1.6 8.0 0.00 0.00 0.00 59 1005.0
20170921005514 23 239 1.6 8.0 0.00 0.00 0.00 58 1005.0
20170921005322 23 182 1.6 9.7 0.00 0.00 0.00 58 1005.0
20170921005213 23 182 1.6 9.7 0.00 0.00 0.00 58 1005.0
20170921004912 24 256 8.0 8.0 0.00 0.00 0.00 57 1004.9
20170921004611 24 187 3.2 8.0 0.00 0.00 0.00 57 1005.0
20170921004440 24 236 1.6 8.0 0.00 0.00 0.00 57 1004.9
20170921004310 24 236 1.6 8.0 0.00 0.00 0.00 57 1004.9
20170921004135 25 249 1.6 8.0 0.00 0.00 0.00 56 1005.0
20170921004009 25 249 1.6 8.0 0.00 0.00 0.00 56 1005.0
20170921003707 25 237 4.8 6.4 0.00 0.00 0.00 56 1004.9
20170921003406 25 249 6.4 9.7 0.00 0.00 0.00 56 1005.1
20170921003105 25 236 6.4 8.0 0.00 0.00 0.00 56 1005.2
20170921002803 25 261 4.8 9.7 0.00 0.00 0.00 55 1005.1
20170921002503 25 213 4.8 4.8 0.00 0.00 0.00 56 1005.2
20170921002202 25 200 1.6 8.0 0.00 0.00 0.00 55 1005.0
20170921001600 26 150 4.8 6.4 0.00 0.00 0.00 55 1005.1
20170921001259 26 215 4.8 8.0 0.00 0.00 0.00 55 1005.1
20170921000957 26 267 4.8 9.7 0.00 0.00 0.00 55 1005.1
20170921000854 26 258 6.4 9.7 0.00 0.00 0.00 55 1005.1
20170921000655 26 258 6.4 9.7 0.00 0.00 0.00 55 1005.1
20170921000504 26 229 6.4 9.7 0.00 0.00 0.00 55 1005.1
20170921000356 26 229 6.4 9.7 0.00 0.00 0.00 55 1005.1
20170921000206 26 243 6.4 9.7 0.00 0.00 0.00 55 1005.2
20170921000053 26 243 6.4 9.7 0.00 0.00 0.00 55 1005.2
20170920235911 26 270 1.6 8.0 0.00 0.00 0.00 55 1005.2
20170920235752 26 270 1.6 8.0 0.00 0.00 0.00 55 1005.2
20170920235621 26 85 1.6 9.7 0.00 0.00 0.00 55 1005.3
20170920235450 26 85 1.6 9.7 0.00 0.00 0.00 55 1005.3
20170920235309 26 276 3.2 9.7 0.00 0.00 0.00 55 1005.2
20170920235151 26 276 3.2 9.7 0.00 0.00 0.00 55 1005.2
20170920234849 26 227 3.2 9.7 0.00 0.00 0.00 55 1005.2
20170920234714 26 258 1.6 9.7 0.00 0.00 0.00 55 1005.2
20170920234549 26 258 1.6 9.7 0.00 0.00 0.00 55 1005.2
20170920234058 26 247 4.8 8.0 0.00 0.00 0.00 56 1005.2
20170920233945 26 247 4.8 8.0 0.00 0.00 0.00 56 1005.2
20170920233831 26 267 3.2 9.7 0.00 0.00 0.00 56 1005.2
20170920233645 26 267 3.2 9.7 0.00 0.00 0.00 56 1005.2
20170920233504 26 252 6.4 9.7 0.00 0.00 0.00 56 1005.2
20170920233343 26 252 6.4 9.7 0.00 0.00 0.00 56 1005.2
20170920233043 25 177 4.8 9.7 0.00 0.00 0.00 57 1005.2
20170920232742 25 232 3.2 12.9 0.00 0.00 0.00 57 1005.4
20170920232602 25 239 8.0 12.9 0.00 0.00 0.00 57 1005.2
20170920232440 25 239 8.0 12.9 0.00 0.00 0.00 57 1005.2
20170920232139 25 180 3.2 9.7 0.00 0.00 0.00 57 1005.3
20170920231839 25 237 4.8 11.3 0.00 0.00 0.00 57 1005.3
20170920231647 25 245 9.7 16.1 0.00 0.00 0.00 56 1005.2
20170920231537 25 245 9.7 16.1 0.00 0.00 0.00 56 1005.2
20170920231322 25 254 8.0 11.3 0.00 0.00 0.00 57 1005.1
20170920231237 25 254 8.0 11.3 0.00 0.00 0.00 57 1005.1
20170920230635 25 279 19.3 19.3 0.00 0.00 0.00 56 1005.2
20170920230333 25 252 6.4 11.3 0.00 0.00 0.00 56 1005.2
20170920230151 25 252 8.0 9.7 0.00 0.00 0.00 56 1005.0
20170920230031 25 252 8.0 9.7 0.00 0.00 0.00 56 1005.0
20170920225847 25 252 4.8 12.9 0.00 0.00 0.00 55 1005.5
20170920225729 25 252 4.8 12.9 0.00 0.00 0.00 55 1005.5
20170920225430 25 230 4.8 16.1 0.00 0.00 0.00 55 1005.4
20170920225242 26 270 16.1 16.1 0.00 0.00 0.00 53 1005.4
20170920225130 26 270 16.1 16.1 0.00 0.00 0.00 53 1005.4
20170920225002 26 255 8.0 14.5 0.00 0.00 0.00 53 1005.3
20170920224828 26 255 8.0 14.5 0.00 0.00 0.00 53 1005.3
20170920224525 26 252 9.7 17.7 0.00 0.00 0.00 53 1005.4
20170920224224 26 238 4.8 9.7 0.00 0.00 0.00 53 1005.3
20170920224141 26 270 12.9 20.9 0.00 0.00 0.00 52 1005.3
20170920223923 26 270 12.9 20.9 0.00 0.00 0.00 52 1005.3
20170920223623 26 261 12.9 14.5 0.00 0.00 0.00 52 1005.4
20170920223323 27 230 6.4 14.5 0.00 0.00 0.00 52 1005.4
20170920223124 27 258 9.7 24.1 0.00 0.00 0.00 52 1005.2
20170920223020 27 258 9.7 24.1 0.00 0.00 0.00 52 1005.2
20170920222842 27 279 14.5 22.5 0.00 0.00 0.00 52 1005.2
20170920222720 27 279 14.5 22.5 0.00 0.00 0.00 52 1005.2
20170920222254 27 256 9.7 14.5 0.00 0.00 0.00 52 1005.3
20170920222118 27 256 9.7 14.5 0.00 0.00 0.00 52 1005.3
20170920221921 27 227 1.6 11.3 0.00 0.00 0.00 52 1005.4
20170920221817 27 227 1.6 11.3 0.00 0.00 0.00 52 1005.4
20170920221703 27 267 1.6 11.3 0.00 0.00 0.00 52 1005.5
20170920221516 27 267 1.6 11.3 0.00 0.00 0.00 52 1005.5
20170920221239 27 237 4.8 19.3 0.00 0.00 0.00 52 1005.5
20170920221213 27 217 1.6 11.3 0.00 0.00 0.00 52 1005.4
20170920221151 27 261 8.0 11.3 0.00 0.00 0.00 52 1005.5
20170920221100 27 275 3.2 12.9 0.00 0.00 0.00 53 1005.5
20170920221007 27 245 9.7 20.9 0.00 0.00 0.00 52 1005.6
20170920220914 27 261 8.0 11.3 0.00 0.00 0.00 52 1005.5
20170920220912 27 252 9.7 19.3 0.00 0.00 0.00 52 1005.5
20170920220814 27 252 9.7 19.3 0.00 0.00 0.00 52 1005.5
20170920220713 27 275 3.2 12.9 0.00 0.00 0.00 53 1005.5
20170920220613 27 275 3.2 12.9 0.00 0.00 0.00 53 1005.5
20170920220606 27 272 20.9 20.9 0.00 0.00 0.00 52 1005.4
20170920220459 27 252 9.7 19.3 0.00 0.00 0.00 52 1005.5
20170920220348 27 272 20.9 20.9 0.00 0.00 0.00 52 1005.4
20170920220312 27 243 8.0 16.1 0.00 0.00 0.00 52 1005.6
20170920220237 27 237 4.8 19.3 0.00 0.00 0.00 52 1005.5
20170920220125 27 237 4.8 19.3 0.00 0.00 0.00 52 1005.5
20170920220010 27 252 9.7 19.3 0.00 0.00 0.00 52 1005.5
20170920215852 27 237 4.8 19.3 0.00 0.00 0.00 52 1005.5
20170920215731 27 272 20.9 20.9 0.00 0.00 0.00 52 1005.4
20170920215709 27 237 4.8 19.3 0.00 0.00 0.00 52 1005.5
20170920215606 27 245 9.7 20.9 0.00 0.00 0.00 52 1005.6
20170920215436 27 272 20.9 20.9 0.00 0.00 0.00 52 1005.4
20170920215408 27 270 14.5 19.3 0.00 0.00 0.00 52 1005.4
20170920215303 27 252 9.7 19.3 0.00 0.00 0.00 52 1005.5
20170920215125 27 252 9.7 19.3 0.00 0.00 0.00 52 1005.5
20170920215106 27 217 1.6 11.3 0.00 0.00 0.00 52 1005.5
20170920214942 27 245 9.7 20.9 0.00 0.00 0.00 52 1005.6
20170920214804 27 252 9.7 19.3 0.00 0.00 0.00 52 1005.5
20170920214753 27 245 9.7 20.9 0.00 0.00 0.00 52 1005.6
20170920214600 27 245 9.7 20.9 0.00 0.00 0.00 52 1005.6
20170920214505 27 261 8.0 19.3 0.00 0.00 0.00 52 1005.5
20170920214400 27 272 20.9 20.9 0.00 0.00 0.00 52 1005.4
20170920214203 27 245 9.7 20.9 0.00 0.00 0.00 52 1005.6
20170920214155 27 272 20.9 20.9 0.00 0.00 0.00 52 1005.4
20170920213903 27 272 20.9 20.9 0.00 0.00 0.00 52 1005.4
20170920213600 27 261 8.0 11.3 0.00 0.00 0.00 52 1005.8
20170920213301 27 261 4.8 12.9 0.00 0.00 0.00 53 1005.8
20170920212958 26 261 4.8 12.9 0.00 0.00 0.00 53 1005.8
20170920212657 26 249 9.7 16.1 0.00 0.00 0.00 53 1005.8
20170920212355 26 256 4.8 16.1 0.00 0.00 0.00 54 1005.9
20170920212055 26 265 6.4 16.1 0.00 0.00 0.00 54 1005.8
20170920211755 26 263 8.0 19.3 0.00 0.00 0.00 53 1005.9
20170920211452 26 270 6.4 17.7 0.00 0.00 0.00 53 1005.7
20170920211151 26 261 12.9 20.9 0.00 0.00 0.00 52 1006.0
20170920210851 27 299 14.5 20.9 0.00 0.00 0.00 52 1005.9
20170920210551 27 265 11.3 17.7 0.00 0.00 0.00 53 1006.0
20170920210248 27 263 8.0 11.3 0.00 0.00 0.00 53 1006.1
20170920210101 26 238 1.6 11.3 0.00 0.00 0.00 54 1006.1
20170920205948 26 238 1.6 11.3 0.00 0.00 0.00 54 1006.1
20170920205519 27 265 6.4 9.7 0.00 0.00 0.00 52 1006.1
20170920205344 27 265 6.4 9.7 0.00 0.00 0.00 52 1006.1
20170920205218 27 270 9.7 16.1 0.00 0.00 0.00 53 1006.1
20170920205045 27 270 9.7 16.1 0.00 0.00 0.00 53 1006.1
20170920204744 27 265 3.2 16.1 0.00 0.00 0.00 52 1006.0
20170920204620 27 261 8.0 16.1 0.00 0.00 0.00 52 1006.1
20170920204442 27 261 8.0 16.1 0.00 0.00 0.00 52 1006.1
20170920204403 27 297 11.3 16.1 0.00 0.00 0.00 51 1006.1
20170920204140 27 297 11.3 16.1 0.00 0.00 0.00 51 1006.1
20170920203840 28 252 8.0 9.7 0.00 0.00 0.00 52 1006.2
20170920203658 28 229 1.6 9.7 0.00 0.00 0.00 52 1006.2
20170920203538 28 229 1.6 9.7 0.00 0.00 0.00 52 1006.2
20170920202937 28 258 8.0 9.7 0.00 0.00 0.00 52 1006.3
20170920202834 28 243 6.4 9.7 0.00 0.00 0.00 52 1006.3
20170920202636 28 243 6.4 9.7 0.00 0.00 0.00 52 1006.3
20170920202508 28 230 1.6 8.0 0.00 0.00 0.00 52 1006.3
20170920202333 28 230 1.6 8.0 0.00 0.00 0.00 52 1006.3
20170920201930 28 279 4.8 14.5 0.00 0.00 0.00 52 1006.4
20170920201732 28 279 4.8 14.5 0.00 0.00 0.00 52 1006.4
20170920201551 28 258 4.8 12.9 0.00 0.00 0.00 52 1006.6
20170920201430 28 258 4.8 12.9 0.00 0.00 0.00 52 1006.6
20170920201310 28 236 6.4 12.9 0.00 0.00 0.00 52 1006.5
20170920201130 28 236 6.4 12.9 0.00 0.00 0.00 52 1006.5
20170920200828 28 279 8.0 11.3 0.00 0.00 0.00 52 1006.6
20170920200733 28 261 11.3 11.3 0.00 0.00 0.00 54 1006.5
20170920200528 28 261 11.3 11.3 0.00 0.00 0.00 54 1006.5
20170920200415 28 240 1.6 9.7 0.00 0.00 0.00 54 1006.8
20170920200227 28 240 1.6 9.7 0.00 0.00 0.00 54 1006.8
20170920200056 28 254 8.0 9.7 0.00 0.00 0.00 55 1006.9
20170920195927 28 254 8.0 9.7 0.00 0.00 0.00 55 1006.9
20170920195743 28 254 8.0 8.0 0.00 0.00 0.00 55 1006.7
20170920195624 28 254 8.0 8.0 0.00 0.00 0.00 55 1006.7
20170920195458 28 254 6.4 6.4 0.00 0.00 0.00 55 1006.6
20170920195324 28 254 6.4 6.4 0.00 0.00 0.00 55 1006.6
20170920195128 28 227 0.0 8.0 0.00 0.00 0.00 56 1006.6
20170920195021 28 227 0.0 8.0 0.00 0.00 0.00 56 1006.6
20170920194721 27 265 6.4 9.7 0.00 0.00 0.00 56 1006.5
20170920194546 27 238 4.8 6.4 0.00 0.00 0.00 57 1006.7
20170920194421 27 238 4.8 6.4 0.00 0.00 0.00 57 1006.7
20170920194256 27 258 6.4 6.4 0.00 0.00 0.00 58 1006.9
20170920194119 27 258 6.4 6.4 0.00 0.00 0.00 58 1006.9
20170920193817 26 261 4.8 12.9 0.00 0.00 0.00 58 1006.9
20170920193518 26 267 11.3 11.3 0.00 0.00 0.00 59 1006.8
20170920192743 25 247 0.0 4.8 0.00 0.00 0.00 61 1006.7
20170920192614 25 247 0.0 4.8 0.00 0.00 0.00 61 1006.7
20170920192439 25 228 0.0 11.3 0.00 0.00 0.00 61 1006.9
20170920192311 25 228 0.0 11.3 0.00 0.00 0.00 61 1006.9
20170920192125 25 252 4.8 16.1 0.00 0.00 0.00 61 1006.8
20170920192011 25 252 4.8 16.1 0.00 0.00 0.00 61 1006.8
20170920191851 25 270 16.1 16.1 0.00 0.00 0.00 61 1006.8
20170920191709 25 270 16.1 16.1 0.00 0.00 0.00 61 1006.8
20170920191540 24 281 9.7 9.7 0.00 0.00 0.00 62 1006.8
20170920191409 24 281 9.7 9.7 0.00 0.00 0.00 62 1006.8
20170920191224 24 245 6.4 11.3 0.00 0.00 0.00 62 1007.0
20170920191108 24 245 6.4 11.3 0.00 0.00 0.00 62 1007.0
20170920190932 23 272 8.0 9.7 0.00 0.00 0.00 62 1006.8
20170920190807 23 272 8.0 9.7 0.00 0.00 0.00 62 1006.8
20170920190506 24 285 8.0 14.5 0.00 0.00 0.00 62 1006.8
20170920190400 24 279 9.7 12.9 0.00 0.00 0.00 62 1007.0
20170920190203 24 279 9.7 12.9 0.00 0.00 0.00 62 1007.0
20170920190108 24 310 11.3 12.9 0.00 0.00 0.00 62 1007.0
20170920185904 24 310 11.3 12.9 0.00 0.00 0.00 62 1007.0
20170920185750 24 265 8.0 12.9 0.00 0.00 0.00 63 1007.0
20170920185601 24 265 8.0 12.9 0.00 0.00 0.00 63 1007.0
20170920185425 24 270 12.9 12.9 0.00 0.00 0.00 63 1007.1
20170920185301 24 270 12.9 12.9 0.00 0.00 0.00 63 1007.1
20170920184959 24 265 8.0 9.7 0.00 0.00 0.00 64 1007.1
20170920184659 24 263 8.0 9.7 0.00 0.00 0.00 64 1007.1
20170920184057 24 252 4.8 9.7 0.00 0.00 0.00 64 1007.1
20170920183918 24 279 8.0 9.7 0.00 0.00 0.00 65 1007.2
20170920183756 24 279 8.0 9.7 0.00 0.00 0.00 65 1007.2
20170920183613 23 245 4.8 4.8 0.00 0.00 0.00 66 1007.3
20170920183454 23 245 4.8 4.8 0.00 0.00 0.00 66 1007.3
20170920183316 23 225 0.0 4.8 0.00 0.00 0.00 66 1007.4
20170920183154 23 225 0.0 4.8 0.00 0.00 0.00 66 1007.4
20170920183025 23 225 1.6 4.8 0.00 0.00 0.00 67 1007.5
20170920182851 23 225 1.6 4.8 0.00 0.00 0.00 67 1007.5
20170920182551 23 263 3.2 6.4 0.00 0.00 0.00 66 1007.5
20170920182422 23 0 3.2 9.7 0.00 0.00 0.00 66 1007.5
20170920182251 23 0 3.2 9.7 0.00 0.00 0.00 66 1007.5
20170920182120 23 270 6.4 6.4 0.00 0.00 0.00 66 1007.5
20170920181951 23 270 6.4 6.4 0.00 0.00 0.00 66 1007.5
20170920181648 23 310 3.2 9.7 0.00 0.00 0.00 65 1007.5
20170920181524 23 260 1.6 11.3 0.00 0.00 0.00 66 1007.5
20170920181346 23 260 1.6 11.3 0.00 0.00 0.00 66 1007.5
20170920181047 23 256 4.8 4.8 0.00 0.00 0.00 67 1007.5
20170920180637 23 189 1.6 11.3 0.00 0.00 0.00 68 1007.5
20170920180444 23 189 1.6 11.3 0.00 0.00 0.00 68 1007.5
20170920180325 23 263 6.4 11.3 0.00 0.00 0.00 68 1007.5
20170920180142 23 263 6.4 11.3 0.00 0.00 0.00 68 1007.5
20170920175842 23 234 0.0 4.8 0.00 0.00 0.00 69 1007.5
20170920175540 23 240 1.6 6.4 0.00 0.00 0.00 69 1007.3
20170920175411 23 240 3.2 6.4 0.00 0.00 0.00 69 1007.2
20170920175239 23 240 3.2 6.4 0.00 0.00 0.00 69 1007.2
20170920175101 23 270 6.4 6.4 0.00 0.00 0.00 70 1007.3
20170920174937 23 270 6.4 6.4 0.00 0.00 0.00 70 1007.3
20170920174636 22 247 1.6 8.0 0.00 0.00 0.00 70 1007.3
20170920174608 22 267 6.4 8.0 0.00 0.00 0.00 71 1007.2
20170920174336 22 267 6.4 8.0 0.00 0.00 0.00 71 1007.2
20170920174300 22 234 1.6 11.3 0.00 0.00 0.00 71 1007.3
20170920174034 22 234 1.6 11.3 0.00 0.00 0.00 71 1007.3
20170920173910 22 276 8.0 11.3 0.00 0.00 0.00 72 1007.2
20170920173733 22 276 8.0 11.3 0.00 0.00 0.00 72 1007.2
20170920173556 22 252 1.6 6.4 0.00 0.00 0.00 72 1007.3
20170920173432 22 252 1.6 6.4 0.00 0.00 0.00 72 1007.3
20170920172831 22 270 0.0 4.8 0.00 0.00 0.00 72 1007.3
20170920172530 22 243 1.6 4.8 0.00 0.00 0.00 73 1007.4
20170920172434 22 227 0.0 4.8 0.00 0.00 0.00 74 1007.5
20170920172228 22 227 0.0 4.8 0.00 0.00 0.00 74 1007.5
20170920172034 22 225 0.0 4.8 0.00 0.00 0.00 74 1007.5
20170920171926 22 225 0.0 4.8 0.00 0.00 0.00 74 1007.5
20170920171325 21 45 0.0 4.8 0.00 0.00 0.00 74 1007.5
20170920171220 21 193 0.0 4.8 0.00 0.00 0.00 74 1007.4
20170920171024 21 193 0.0 4.8 0.00 0.00 0.00 74 1007.4
20170920170722 21 225 0.0 3.2 0.00 0.00 0.00 75 1007.4
20170920170548 21 140 1.6 4.8 0.00 0.00 0.00 75 1007.4
20170920170422 21 140 1.6 4.8 0.00 0.00 0.00 75 1007.4
20170920170120 21 198 1.6 3.2 0.00 0.00 0.00 76 1007.4
20170920170008 21 276 1.6 3.2 0.00 0.00 0.00 76 1007.4
20170920165818 21 276 1.6 3.2 0.00 0.00 0.00 76 1007.4
20170920165653 21 0 0.0 6.4 0.00 0.00 0.00 76 1007.4
20170920165520 21 0 0.0 6.4 0.00 0.00 0.00 76 1007.4
20170920165349 21 112 3.2 8.0 0.00 0.00 0.00 76 1007.5
20170920165217 21 112 3.2 8.0 0.00 0.00 0.00 76 1007.5
20170920165107 21 99 6.4 8.0 0.00 0.00 0.00 76 1007.5
20170920164916 21 99 6.4 8.0 0.00 0.00 0.00 76 1007.5
20170920164740 21 90 4.8 6.4 0.00 0.00 0.00 75 1007.5
20170920164615 21 90 4.8 6.4 0.00 0.00 0.00 75 1007.5
20170920164313 21 90 6.4 6.4 0.00 0.00 0.00 75 1007.4
20170920163912 21 105 3.2 8.0 0.00 0.00 0.00 77 1007.3
20170920163711 21 105 3.2 8.0 0.00 0.00 0.00 77 1007.3
20170920163522 21 150 3.2 6.4 0.00 0.00 0.00 78 1007.4
20170920163411 21 150 3.2 6.4 0.00 0.00 0.00 78 1007.4
20170920163109 21 99 3.2 8.0 0.00 0.00 0.00 79 1007.3
20170920162808 21 96 6.4 8.0 0.00 0.00 0.00 79 1007.5
20170920162506 20 171 4.8 6.4 0.00 0.00 0.00 82 1007.3
20170920162339 20 96 4.8 8.0 0.00 0.00 0.00 82 1007.2
20170920162206 20 96 4.8 8.0 0.00 0.00 0.00 82 1007.2
20170920161904 20 126 4.8 6.4 0.00 0.00 0.00 84 1007.1
20170920161737 20 144 3.2 4.8 0.00 0.00 0.00 84 1007.1
20170920161604 20 144 3.2 4.8 0.00 0.00 0.00 84 1007.1
20170920161304 20 128 3.2 6.4 0.00 0.00 0.00 85 1007.1
20170920160839 19 162 1.6 3.2 0.00 0.00 0.00 86 1007.2
20170920160701 19 162 1.6 3.2 0.00 0.00 0.00 86 1007.2
20170920160400 19 180 0.0 3.2 0.00 0.00 0.00 87 1007.3
20170920160059 18 119 1.6 3.2 0.00 0.00 0.00 88 1007.1
20170920155933 18 175 0.0 4.8 0.00 0.00 0.00 87 1007.2
20170920155757 18 175 0.0 4.8 0.00 0.00 0.00 87 1007.2
20170920155616 18 146 1.6 3.2 0.00 0.00 0.00 88 1007.2
20170920155455 18 146 1.6 3.2 0.00 0.00 0.00 88 1007.2
20170920155303 18 135 0.0 3.2 0.00 0.00 0.00 88 1006.9
20170920155155 18 135 0.0 3.2 0.00 0.00 0.00 88 1006.9
20170920154853 18 211 0.0 1.6 0.00 0.00 0.00 89 1007.0
20170920154657 17 135 1.6 1.6 0.00 0.00 0.00 90 1006.9
20170920154553 17 135 1.6 1.6 0.00 0.00 0.00 90 1006.9
20170920154440 17 135 1.6 1.6 0.00 0.00 0.00 90 1006.8
20170920154252 17 135 1.6 1.6 0.00 0.00 0.00 90 1006.8
20170920154138 17 155 1.6 1.6 0.00 0.00 0.00 90 1006.7
20170920153954 17 155 1.6 1.6 0.00 0.00 0.00 90 1006.7
20170920153825 17 225 0.0 1.6 0.00 0.00 0.00 91 1006.8
20170920153649 17 225 0.0 1.6 0.00 0.00 0.00 91 1006.8
20170920153544 16 180 0.0 1.6 0.00 0.00 0.00 91 1006.7
20170920153347 16 180 0.0 1.6 0.00 0.00 0.00 91 1006.7
20170920153203 16 180 0.0 1.6 0.00 0.00 0.00 91 1006.4
20170920153046 16 180 0.0 1.6 0.00 0.00 0.00 91 1006.4
20170920153029 16 180 1.6 1.6 0.00 0.00 0.00 92 1006.7
20170920152745 16 180 1.6 1.6 0.00 0.00 0.00 92 1006.7
20170920152629 16 180 0.0 1.6 0.00 0.00 0.00 92 1006.8
20170920152444 16 180 0.0 1.6 0.00 0.00 0.00 92 1006.8
20170920152339 16 173 0.0 1.6 0.00 0.00 0.00 92 1006.6
20170920152145 16 173 0.0 1.6 0.00 0.00 0.00 92 1006.6
20170920151843 16 135 1.6 1.6 0.00 0.00 0.00 92 1006.4
20170920151542 16 126 1.6 1.6 0.00 0.00 0.00 92 1006.6
20170920151120 15 90 0.0 1.6 0.00 0.00 0.00 93 1006.6
20170920150940 15 90 0.0 1.6 0.00 0.00 0.00 93 1006.6
20170920150810 15 90 0.0 1.6 0.00 0.00 0.00 93 1006.6
20170920150638 15 90 0.0 1.6 0.00 0.00 0.00 93 1006.6
20170920150517 15 218 0.0 1.6 0.00 0.00 0.00 93 1006.6
20170920150336 15 218 0.0 1.6 0.00 0.00 0.00 93 1006.6
20170920150223 15 180 1.6 1.6 0.00 0.00 0.00 93 1006.5
20170920150036 15 180 1.6 1.6 0.00 0.00 0.00 93 1006.5
20170920145901 15 135 0.0 1.6 0.00 0.00 0.00 93 1006.4
20170920145734 15 135 0.0 1.6 0.00 0.00 0.00 93 1006.4
20170920145625 15 126 1.6 1.6 0.00 0.00 0.00 94 1006.2
20170920145434 15 126 1.6 1.6 0.00 0.00 0.00 94 1006.2
20170920144831 14 135 1.6 3.2 0.00 0.00 0.00 93 1006.2
20170920144408 14 90 1.6 3.2 0.00 0.00 0.00 93 1006.2
20170920144229 14 90 1.6 3.2 0.00 0.00 0.00 93 1006.2
20170920143928 14 90 3.2 4.8 0.00 0.00 0.00 95 1006.3
20170920143819 14 99 3.2 4.8 0.00 0.00 0.00 95 1006.3
20170920143626 14 99 3.2 4.8 0.00 0.00 0.00 95 1006.3
20170920143500 13 114 3.2 3.2 0.00 0.00 0.00 95 1006.2
20170920143327 13 114 3.2 3.2 0.00 0.00 0.00 95 1006.2
20170920143202 13 92 3.2 4.8 0.00 0.00 0.00 95 1006.2
20170920143024 13 92 3.2 4.8 0.00 0.00 0.00 95 1006.2
20170920142901 13 99 3.2 3.2 0.00 0.00 0.00 95 1006.1
20170920142725 13 99 3.2 3.2 0.00 0.00 0.00 95 1006.1
20170920142423 13 69 3.2 4.8 0.00 0.00 0.00 95 1006.2
20170920142258 13 103 3.2 4.8 0.00 0.00 0.00 95 1006.0
20170920142121 13 103 3.2 4.8 0.00 0.00 0.00 95 1006.0
20170920141822 13 90 3.2 8.0 0.00 0.00 0.00 95 1005.9
20170920141703 13 101 4.8 4.8 0.00 0.00 0.00 95 1005.9
20170920141520 13 101 4.8 4.8 0.00 0.00 0.00 95 1005.9
20170920141218 13 90 3.2 4.8 0.00 0.00 0.00 95 1005.9
20170920140617 12 90 1.6 4.8 0.00 0.00 0.00 95 1005.8
20170920140429 12 90 1.6 6.4 0.00 0.00 0.00 95 1005.8
20170920140314 12 90 1.6 6.4 0.00 0.00 0.00 95 1005.8
20170920140153 12 83 3.2 6.4 0.00 0.00 0.00 95 1005.8
20170920140013 12 83 3.2 6.4 0.00 0.00 0.00 95 1005.8
20170920135522 12 135 1.6 4.8 0.00 0.00 0.00 95 1005.7
20170920135412 12 135 1.6 4.8 0.00 0.00 0.00 95 1005.7
20170920135313 12 67 4.8 4.8 0.00 0.00 0.00 95 1005.7
20170920135110 12 67 4.8 4.8 0.00 0.00 0.00 95 1005.7
20170920134945 12 90 3.2 4.8 0.00 0.00 0.00 95 1005.7
20170920134809 12 90 3.2 4.8 0.00 0.00 0.00 95 1005.7
20170920134508 12 87 4.8 6.4 0.00 0.00 0.00 95 1005.7
20170920134245 12 78 4.8 6.4 0.00 0.00 0.00 95 1005.6
20170920134208 12 78 4.8 6.4 0.00 0.00 0.00 95 1005.6
20170920134038 12 90 6.4 6.4 0.00 0.00 0.00 95 1005.6
20170920133906 12 90 6.4 6.4 0.00 0.00 0.00 95 1005.6
20170920133607 12 90 3.2 6.4 0.00 0.00 0.00 95 1005.6
20170920133510 12 87 4.8 4.8 0.00 0.00 0.00 95 1005.6
20170920133303 12 87 4.8 4.8 0.00 0.00 0.00 95 1005.6
20170920133140 12 83 4.8 4.8 0.00 0.00 0.00 95 1005.7
20170920133003 12 83 4.8 4.8 0.00 0.00 0.00 95 1005.7
20170920132807 12 90 3.2 4.8 0.00 0.00 0.00 95 1005.5
20170920132701 12 90 3.2 4.8 0.00 0.00 0.00 95 1005.5
20170920132515 12 90 3.2 4.8 0.00 0.00 0.00 95 1005.5
20170920132400 12 90 3.2 4.8 0.00 0.00 0.00 95 1005.5
20170920132247 12 96 1.6 3.2 0.00 0.00 0.00 95 1005.6
20170920132059 12 96 1.6 3.2 0.00 0.00 0.00 95 1005.6
20170920132003 12 90 3.2 4.8 0.00 0.00 0.00 95 1005.6
20170920131800 12 90 3.2 4.8 0.00 0.00 0.00 95 1005.6
20170920131457 12 92 4.8 4.8 0.00 0.00 0.00 95 1005.5
20170920131157 12 135 1.6 1.6 0.00 0.00 0.00 94 1005.5
20170920130509 12 90 1.6 1.6 0.00 0.00 0.00 94 1005.4
20170920130254 12 90 1.6 1.6 0.00 0.00 0.00 94 1005.4
20170920130128 12 112 1.6 3.2 0.00 0.00 0.00 94 1005.3
20170920125951 12 112 1.6 3.2 0.00 0.00 0.00 94 1005.3
20170920125650 12 180 0.0 1.6 0.00 0.00 0.00 94 1005.4
20170920125426 12 130 1.6 1.6 0.00 0.00 0.00 94 1005.4
20170920125350 12 130 1.6 1.6 0.00 0.00 0.00 94 1005.4
20170920125230 12 135 1.6 1.6 0.00 0.00 0.00 94 1005.5
20170920125050 12 135 1.6 1.6 0.00 0.00 0.00 94 1005.5
20170920124911 12 135 1.6 1.6 0.00 0.00 0.00 94 1005.4
20170920124747 12 135 1.6 1.6 0.00 0.00 0.00 94 1005.4
20170920124525 12 135 0.0 4.8 0.00 0.00 0.00 94 1005.4
20170920124447 12 135 0.0 4.8 0.00 0.00 0.00 94 1005.4
20170920123845 13 135 1.6 4.8 0.00 0.00 0.00 94 1005.4
20170920123714 13 87 3.2 4.8 0.00 0.00 0.00 94 1005.4
20170920123542 13 87 3.2 4.8 0.00 0.00 0.00 94 1005.4
20170920123437 13 81 4.8 4.8 0.00 0.00 0.00 94 1005.3
20170920123241 13 81 4.8 4.8 0.00 0.00 0.00 94 1005.3
20170920123107 13 92 3.2 4.8 0.00 0.00 0.00 94 1005.4
20170920122940 13 92 3.2 4.8 0.00 0.00 0.00 94 1005.4
20170920122423 13 90 3.2 4.8 0.00 0.00 0.00 94 1005.3
20170920122338 13 92 3.2 4.8 0.00 0.00 0.00 94 1005.3
20170920122037 13 90 3.2 4.8 0.00 0.00 0.00 94 1005.3
20170920121910 13 94 3.2 6.4 0.00 0.00 0.00 94 1005.3
20170920121737 13 94 3.2 6.4 0.00 0.00 0.00 94 1005.3
20170920121439 13 90 4.8 6.4 0.00 0.00 0.00 94 1005.3
20170920121436 13 90 4.8 6.4 0.00 0.00 0.00 94 1005.2
20170920121229 13 94 4.8 6.4 0.00 0.00 0.00 94 1005.2
20170920121135 13 90 4.8 6.4 0.00 0.00 0.00 94 1005.3
20170920120834 13 94 4.8 6.4 0.00 0.00 0.00 94 1005.2
20170920120604 13 90 6.4 9.7 0.00 0.00 0.00 94 1005.3
20170920120531 13 90 4.8 8.0 0.00 0.00 0.00 94 1005.3
20170920120232 13 90 6.4 9.7 0.00 0.00 0.00 94 1005.3
20170920120157 13 92 6.4 6.4 0.00 0.00 0.00 94 1005.4
20170920115929 13 92 6.4 6.4 0.00 0.00 0.00 94 1005.4
20170920115629 13 90 4.8 6.4 0.00 0.00 0.00 94 1005.3
20170920115602 13 92 6.4 6.4 0.00 0.00 0.00 94 1005.3
20170920115327 13 92 6.4 6.4 0.00 0.00 0.00 94 1005.3
20170920115027 13 87 4.8 6.4 0.00 0.00 0.00 94 1005.3
20170920115002 13 80 3.2 6.4 0.00 0.00 0.00 94 1005.2
20170920114725 13 80 3.2 6.4 0.00 0.00 0.00 94 1005.2
20170920114702 13 85 3.2 6.4 0.00 0.00 0.00 93 1005.2
20170920114425 13 85 3.2 6.4 0.00 0.00 0.00 93 1005.2
20170920114421 13 72 1.6 4.8 0.00 0.00 0.00 94 1005.3
20170920114227 13 72 1.6 4.8 0.00 0.00 0.00 94 1005.3
20170920114123 13 72 1.6 4.8 0.00 0.00 0.00 94 1005.3
20170920114038 13 81 3.2 4.8 0.00 0.00 0.00 94 1005.3
20170920113823 13 81 3.2 4.8 0.00 0.00 0.00 94 1005.3
20170920113442 13 78 4.8 4.8 0.00 0.00 0.00 94 1005.3
20170920113220 13 78 4.8 4.8 0.00 0.00 0.00 94 1005.3
20170920113131 13 90 3.2 4.8 0.00 0.00 0.00 94 1005.2
20170920112918 13 90 3.2 4.8 0.00 0.00 0.00 94 1005.2
20170920112617 13 90 3.2 4.8 0.00 0.00 0.00 94 1005.2
20170920112538 13 119 1.6 3.2 0.00 0.00 0.00 94 1005.4
20170920112316 13 119 1.6 3.2 0.00 0.00 0.00 94 1005.4
20170920112211 13 105 1.6 3.2 0.00 0.00 0.00 94 1005.3
20170920112017 13 105 1.6 3.2 0.00 0.00 0.00 94 1005.3
20170920111823 13 90 1.6 3.2 0.00 0.00 0.00 94 1005.4
20170920111714 13 90 1.6 3.2 0.00 0.00 0.00 94 1005.4
20170920111653 13 87 3.2 3.2 0.00 0.00 0.00 94 1005.4
20170920111413 13 87 3.2 3.2 0.00 0.00 0.00 94 1005.4
20170920111111 13 99 3.2 4.8 0.00 0.00 0.00 94 1005.4
20170920111018 13 90 3.2 6.4 0.00 0.00 0.00 94 1005.3
20170920110822 13 90 4.8 6.4 0.00 0.00 0.00 93 1005.3
20170920110810 13 90 3.2 6.4 0.00 0.00 0.00 94 1005.3
20170920110511 13 90 4.8 6.4 0.00 0.00 0.00 93 1005.3
20170920110428 13 90 4.8 9.7 0.00 0.00 0.00 93 1005.3
20170920110209 13 90 4.8 9.7 0.00 0.00 0.00 93 1005.3
20170920110134 13 90 4.8 9.7 0.00 0.00 0.00 93 1005.3
20170920105907 13 90 4.8 9.7 0.00 0.00 0.00 93 1005.3
20170920105607 13 96 3.2 4.8 0.00 0.00 0.00 93 1005.3
20170920105305 13 99 1.6 4.8 0.00 0.00 0.00 93 1005.3
20170920105212 13 103 3.2 4.8 0.00 0.00 0.00 93 1005.2
20170920105004 13 103 3.2 4.8 0.00 0.00 0.00 93 1005.2
20170920104839 13 96 3.2 4.8 0.00 0.00 0.00 93 1005.4
20170920104703 13 96 3.2 4.8 0.00 0.00 0.00 93 1005.4
20170920104607 13 96 1.6 4.8 0.00 0.00 0.00 93 1005.2
20170920104403 13 96 1.6 4.8 0.00 0.00 0.00 93 1005.2
20170920104101 13 56 1.6 4.8 0.00 0.00 0.00 93 1005.3
20170920103759 13 83 4.8 4.8 0.00 0.00 0.00 93 1005.2
20170920103618 13 90 3.2 4.8 0.00 0.00 0.00 93 1005.3
20170920103458 13 90 3.2 4.8 0.00 0.00 0.00 93 1005.3
20170920103416 13 90 3.2 6.4 0.00 0.00 0.00 93 1005.3
20170920103157 13 90 3.2 6.4 0.00 0.00 0.00 93 1005.3
20170920102858 13 90 3.2 6.4 0.00 0.00 0.00 93 1005.4
20170920102738 13 90 3.2 6.4 0.00 0.00 0.00 92 1005.5
20170920102556 13 90 3.2 6.4 0.00 0.00 0.00 92 1005.5
20170920102509 13 90 4.8 6.4 0.00 0.00 0.00 92 1005.3
20170920102254 13 90 4.8 6.4 0.00 0.00 0.00 92 1005.3
20170920102146 13 83 3.2 4.8 0.00 0.00 0.00 93 1005.4
20170920101954 13 83 3.2 4.8 0.00 0.00 0.00 93 1005.4
20170920101822 13 87 4.8 4.8 0.00 0.00 0.00 92 1005.4
20170920101741 13 87 4.8 4.8 0.00 0.00 0.00 92 1005.4
20170920101652 13 87 4.8 4.8 0.00 0.00 0.00 92 1005.4
20170920101545 13 58 3.2 6.4 0.00 0.00 0.00 93 1005.3
20170920101350 13 58 3.2 6.4 0.00 0.00 0.00 93 1005.3
20170920101315 13 49 3.2 8.0 0.00 0.00 0.00 93 1005.4
20170920101049 13 49 3.2 8.0 0.00 0.00 0.00 93 1005.4
20170920100919 13 69 4.8 8.0 0.00 0.00 0.00 93 1005.4
20170920100748 13 69 4.8 8.0 0.00 0.00 0.00 93 1005.4
20170920100705 13 78 6.4 8.0 0.00 0.00 0.00 93 1005.5
20170920100447 13 78 6.4 8.0 0.00 0.00 0.00 93 1005.5
20170920100432 13 81 6.4 8.0 0.00 0.00 0.00 93 1005.5
20170920100146 13 81 6.4 8.0 0.00 0.00 0.00 93 1005.5
20170920095845 13 90 4.8 8.0 0.00 0.00 0.00 93 1005.5
20170920095544 13 92 3.2 8.0 0.00 0.00 0.00 93 1005.5
20170920095101 13 90 6.4 9.7 0.00 0.00 0.00 93 1005.6
20170920094942 13 90 6.4 9.7 0.00 0.00 0.00 93 1005.6
20170920094823 13 90 6.4 8.0 0.00 0.00 0.00 93 1005.6
20170920094640 13 90 6.4 8.0 0.00 0.00 0.00 93 1005.6
20170920094530 13 81 4.8 6.4 0.00 0.00 0.00 93 1005.7
20170920094339 13 81 4.8 6.4 0.00 0.00 0.00 93 1005.7
20170920094218 13 90 6.4 6.4 0.00 0.00 0.00 93 1005.7
20170920094040 13 90 6.4 6.4 0.00 0.00 0.00 93 1005.7
20170920093937 13 92 4.8 6.4 0.00 0.00 0.00 92 1005.7
20170920093737 13 92 4.8 6.4 0.00 0.00 0.00 92 1005.7
20170920093624 13 87 4.8 6.4 0.00 0.00 0.00 93 1005.6
20170920093436 13 87 4.8 6.4 0.00 0.00 0.00 93 1005.6
20170920093322 13 94 3.2 6.4 0.00 0.00 0.00 93 1005.7
20170920093135 13 94 3.2 6.4 0.00 0.00 0.00 93 1005.7
20170920092935 13 72 1.6 4.8 0.00 0.00 0.00 92 1005.8
20170920092835 13 72 1.6 4.8 0.00 0.00 0.00 92 1005.8
20170920092731 13 90 4.8 4.8 0.00 0.00 0.00 93 1005.8
20170920092533 13 90 4.8 4.8 0.00 0.00 0.00 93 1005.8
20170920092513 13 103 4.8 4.8 0.00 0.00 0.00 92 1005.8
20170920092233 13 103 4.8 4.8 0.00 0.00 0.00 92 1005.8
20170920092105 13 45 0.0 4.8 0.00 0.00 0.00 92 1005.8
20170920091930 13 45 0.0 4.8 0.00 0.00 0.00 92 1005.8
20170920091753 13 103 1.6 4.8 0.00 0.00 0.00 92 1005.8
20170920091629 13 103 1.6 4.8 0.00 0.00 0.00 92 1005.8
20170920091615 13 90 3.2 4.8 0.00 0.00 0.00 91 1005.9
20170920091328 13 90 3.2 4.8 0.00 0.00 0.00 91 1005.9
20170920091212 13 92 3.2 4.8 0.00 0.00 0.00 92 1005.9
20170920091027 13 92 3.2 4.8 0.00 0.00 0.00 92 1005.9
20170920090939 13 103 1.6 3.2 0.00 0.00 0.00 92 1005.9
20170920090726 13 103 1.6 3.2 0.00 0.00 0.00 92 1005.9
20170920090650 13 90 3.2 4.8 0.00 0.00 0.00 92 1005.8
20170920090425 13 90 3.2 4.8 0.00 0.00 0.00 92 1005.8
20170920090219 13 54 4.8 4.8 0.00 0.00 0.00 91 1006.0
20170920090125 13 54 4.8 4.8 0.00 0.00 0.00 91 1006.0
20170920090030 13 45 4.8 4.8 0.00 0.00 0.00 91 1006.0
20170920085823 13 45 4.8 4.8 0.00 0.00 0.00 91 1006.0
20170920085657 13 90 1.6 4.8 0.00 0.00 0.00 92 1005.9
20170920085523 13 90 1.6 4.8 0.00 0.00 0.00 92 1005.9
20170920085153 13 60 1.6 3.2 0.00 0.00 0.00 92 1005.9
20170920085009 13 60 1.6 3.2 0.00 0.00 0.00 92 1005.9
20170920084920 13 60 1.6 3.2 0.00 0.00 0.00 92 1005.9
20170920084717 13 85 3.2 3.2 0.00 0.00 0.00 91 1006.0
20170920084637 13 45 1.6 3.2 0.00 0.00 0.00 92 1006.0
20170920084620 13 85 3.2 3.2 0.00 0.00 0.00 91 1006.0
20170920084618 13 85 3.2 3.2 0.00 0.00 0.00 91 1006.0
20170920084317 13 45 1.6 3.2 0.00 0.00 0.00 92 1006.0
20170920084200 13 69 3.2 3.2 0.00 0.00 0.00 91 1006.0
20170920084104 13 69 3.2 3.2 0.00 0.00 0.00 91 1006.0
20170920084019 13 69 3.2 3.2 0.00 0.00 0.00 91 1006.0
20170920084016 13 69 3.2 3.2 0.00 0.00 0.00 91 1006.0
20170920083912 13 56 1.6 4.8 0.00 0.00 0.00 91 1006.0
20170920083716 13 56 1.6 4.8 0.00 0.00 0.00 91 1006.0
20170920083629 13 110 3.2 4.8 0.00 0.00 0.00 92 1006.1
20170920083414 13 110 3.2 4.8 0.00 0.00 0.00 92 1006.1
20170920083257 13 94 1.6 6.4 0.00 0.00 0.00 91 1006.0
20170920083113 13 94 1.6 6.4 0.00 0.00 0.00 91 1006.0
20170920083008 13 85 4.8 6.4 0.00 0.00 0.00 91 1006.0
20170920082812 13 85 4.8 6.4 0.00 0.00 0.00 91 1006.0
20170920082709 13 81 1.6 3.2 0.00 0.00 0.00 91 1006.1
20170920082511 13 81 1.6 3.2 0.00 0.00 0.00 91 1006.1
20170920082407 13 90 3.2 4.8 0.00 0.00 0.00 91 1005.9
20170920082211 13 90 3.2 4.8 0.00 0.00 0.00 91 1005.9
20170920082051 13 87 3.2 4.8 0.00 0.00 0.00 91 1006.0
20170920081908 13 87 3.2 4.8 0.00 0.00 0.00 91 1006.0
20170920081609 13 90 4.8 4.8 0.00 0.00 0.00 91 1006.0
20170920081506 13 132 1.6 4.8 0.00 0.00 0.00 91 1006.0
20170920081307 13 132 1.6 4.8 0.00 0.00 0.00 91 1006.0
20170920081005 13 92 3.2 4.8 0.00 0.00 0.00 91 1006.0
20170920080823 13 135 1.6 1.6 0.00 0.00 0.00 91 1006.0
20170920080705 13 135 1.6 1.6 0.00 0.00 0.00 91 1006.0
20170920080635 13 90 0.0 3.2 0.00 0.00 0.00 91 1006.0
20170920080404 13 90 0.0 3.2 0.00 0.00 0.00 91 1006.0
20170920080241 13 90 1.6 3.2 0.00 0.00 0.00 91 1006.1
20170920080103 13 90 1.6 3.2 0.00 0.00 0.00 91 1006.1
20170920075949 14 90 1.6 3.2 0.00 0.00 0.00 91 1006.1
20170920075802 14 90 1.6 3.2 0.00 0.00 0.00 91 1006.1
20170920075631 14 135 1.6 4.8 0.00 0.00 0.00 91 1006.1
20170920075501 14 135 1.6 4.8 0.00 0.00 0.00 91 1006.1
20170920075331 14 90 1.6 4.8 0.00 0.00 0.00 91 1006.0
20170920075158 14 90 1.6 4.8 0.00 0.00 0.00 91 1006.0
20170920075049 14 90 1.6 4.8 0.00 0.00 0.00 92 1005.9
20170920075007 14 90 1.6 4.8 0.00 0.00 0.00 92 1005.9
20170920074859 14 90 1.6 4.8 0.00 0.00 0.00 92 1005.9
20170920074805 14 94 3.2 4.8 0.00 0.00 0.00 92 1006.1
20170920074558 14 94 3.2 4.8 0.00 0.00 0.00 92 1006.1
20170920074256 13 90 4.8 4.8 0.00 0.00 0.00 91 1005.9
20170920074155 13 92 4.8 4.8 0.00 0.00 0.00 92 1006.0
20170920073955 13 92 4.8 4.8 0.00 0.00 0.00 92 1006.0
20170920073825 13 90 3.2 4.8 0.00 0.00 0.00 91 1006.0
20170920073654 13 90 3.2 4.8 0.00 0.00 0.00 91 1006.0
20170920073504 13 90 4.8 4.8 0.00 0.00 0.00 91 1006.0
20170920073353 13 90 4.8 4.8 0.00 0.00 0.00 91 1006.0
20170920073305 13 121 1.6 3.2 0.00 0.00 0.00 92 1006.0
20170920073052 13 121 1.6 3.2 0.00 0.00 0.00 92 1006.0
20170920072950 13 90 3.2 3.2 0.00 0.00 0.00 91 1006.0
20170920072751 13 90 3.2 3.2 0.00 0.00 0.00 91 1006.0
20170920072053 13 90 1.6 1.6 0.00 0.00 0.00 91 1006.1
20170920071848 13 90 1.6 1.6 0.00 0.00 0.00 91 1006.1
20170920071738 13 90 1.6 3.2 0.00 0.00 0.00 91 1006.1
20170920071547 13 90 1.6 3.2 0.00 0.00 0.00 91 1006.1
20170920071448 13 135 1.6 3.2 0.00 0.00 0.00 91 1006.1
20170920071245 13 135 1.6 3.2 0.00 0.00 0.00 91 1006.1
20170920071128 13 29 1.6 1.6 0.00 0.00 0.00 90 1006.1
20170920070944 13 29 1.6 1.6 0.00 0.00 0.00 90 1006.1
20170920070806 13 90 1.6 1.6 0.00 0.00 0.00 90 1006.2
20170920070643 13 90 1.6 1.6 0.00 0.00 0.00 90 1006.2
20170920070540 13 0 0.0 1.6 0.00 0.00 0.00 90 1006.2
20170920070342 13 0 0.0 1.6 0.00 0.00 0.00 90 1006.2
20170920070332 13 0 0.0 1.6 0.00 0.00 0.00 90 1006.1
20170920070041 13 0 0.0 1.6 0.00 0.00 0.00 90 1006.1
20170920070001 13 0 0.0 3.2 0.00 0.00 0.00 90 1006.3
20170920065740 13 0 0.0 3.2 0.00 0.00 0.00 90 1006.3
20170920065612 13 45 1.6 3.2 0.00 0.00 0.00 90 1006.2
20170920065437 13 45 1.6 3.2 0.00 0.00 0.00 90 1006.2
20170920065346 13 45 1.6 3.2 0.00 0.00 0.00 90 1006.3
20170920065138 13 45 1.6 3.2 0.00 0.00 0.00 90 1006.3
20170920064535 13 67 1.6 3.2 0.00 0.00 0.00 88 1006.3
20170920064417 13 135 0.0 1.6 0.00 0.00 0.00 88 1006.4
20170920064234 13 135 0.0 1.6 0.00 0.00 0.00 88 1006.4
20170920064118 13 135 1.6 1.6 0.00 0.00 0.00 88 1006.4
20170920063932 13 135 1.6 1.6 0.00 0.00 0.00 88 1006.4
20170920063854 13 180 1.6 1.6 0.00 0.00 0.00 88 1006.4